#timestamp,LO_Frequency,Hit 
1501524015.5,286046997.0,N
1501524035.4,286046999.3,N
1501524055.2,286046998.9,N
1501524075.1,286046998.4,N
1501524076.0,286046998.4,N
1501524095.8,286046996.8,N
1501524115.6,286046997.7,N
1501524135.5,286046997.3,N
1501524155.3,286046997.9,N
1501524175.2,286046995.6,P
1501524195.9,286046996.6,N
1501524215.7,286046996.7,P
1501524235.6,286046999.2,N
1501524255.4,286046998.9,N
1501524275.2,286046996.5,N
1501524295.1,286046998.8,N
1501524296.0,286046998.8,N
1501524315.8,286046998.8,N
1501524335.7,286046998.9,N
1501524355.5,286046999.0,N
1501524375.3,286046996.5,N
1501524395.2,286046998.3,N
1501524415.0,286046998.9,N
1501524415.9,286046998.9,N
1501524435.8,286046998.8,N
1501524455.6,286046998.4,N
1501524475.6,286046998.5,N
1501524495.5,286047001.1,N
1501524515.3,286047000.7,N
1501524535.2,286047000.9,N
1501524555.9,286046998.6,N
1501524575.7,286046998.4,N
1501524595.6,286046998.2,N
1501524615.4,286046998.6,N
1501524635.3,286046998.5,N
1501524655.1,286046998.6,N
1501524656.0,286046998.6,N
1501524675.8,286047000.7,N
1501524695.7,286047000.7,N
1501524715.5,286047001.1,N
1501524735.3,286047000.8,N
1501524755.2,286047000.7,N
1501524775.0,286046998.1,N
1501524775.9,286046998.1,N
1501524795.8,286047000.7,N
1501524815.6,286047000.3,N
1501524835.4,286047000.4,N
1501524855.3,286047002.2,N
1501524875.1,286047000.1,N
1501524895.8,286047001.9,N
1501524915.7,286047002.8,N
1501524935.5,286046999.7,N
1501524955.4,286047000.4,N
1501524975.2,286047000.6,N
1501524995.0,286046999.8,N
1501524995.9,286046999.8,N
1501525015.8,286047002.8,N
1501525035.6,286047001.1,N
1501525055.5,286047000.8,N
1501525075.3,286046999.7,N
1501525095.1,286046999.8,N
1501525115.9,286047002.3,N
1501525135.7,286047000.2,N
1501525155.5,286047002.8,N
1501525175.4,286047000.0,N
1501525195.2,286047000.1,N
1501525215.1,286047000.0,N
1501525216.0,286047000.0,N
1501525235.8,286047000.4,N
1501525255.6,286047000.1,N
1501525275.5,286047002.4,N
1501525295.3,286047001.8,N
1501525315.1,286047001.3,N
1501525335.9,286047001.6,N
1501525355.7,286047001.5,N
1501525375.6,286047001.8,N
1501525395.4,286047002.0,N
1501525415.2,286047004.0,P
1501525435.1,286047002.8,N
1501525436.0,286047002.8,N
1501525455.8,286047002.5,N
1501525475.7,286047002.3,N
1501525495.5,286047002.6,N
1501525515.3,286047002.4,N
1501525535.2,286047000.2,N
1501525555.0,286047001.6,N
1501525555.9,286047001.6,N
1501525575.8,286047002.7,N
1501525595.6,286047002.6,N
1501525615.4,286047004.4,P
1501525635.3,286047000.3,N
1501525655.1,286046998.7,N
1501525675.8,286046998.2,N
1501525695.7,286047001.2,N
1501525715.5,286047000.9,N
1501525735.4,286047001.2,N
1501525755.2,286047000.5,N
1501525775.0,286046998.1,N
1501525775.9,286046998.1,N
1501525795.8,286046998.4,N
1501525815.8,286046998.4,N
1501525835.7,286046998.9,N
1501525855.5,286046998.7,N
1501525875.3,286046998.2,N
1501525895.2,286046999.6,N
1501525915.0,286046998.5,N
1501525915.9,286046998.5,N
1501525935.8,286046998.3,N
1501525955.6,286046996.6,N
1501525975.4,286046999.6,N
1501525995.3,286046998.2,N
1501526015.1,286047001.2,N
1501526035.9,286046996.9,N
1501526055.7,286046996.8,N
1501526075.5,286046999.6,N
1501526095.4,286046999.1,N
1501526115.2,286046999.4,N
1501526135.0,286046999.5,N
1501526136.0,286046999.5,N
1501526155.8,286046999.3,N
1501526175.6,286046996.7,N
1501526195.5,286046997.6,N
1501526215.3,286046997.4,N
1501526235.1,286046996.9,N
1501526255.9,286046999.4,N
1501526275.7,286046999.0,N
1501526295.6,286046998.5,N
1501526315.4,286046996.5,P
1501526335.2,286047000.3,N
1501526355.1,286047001.0,N
1501526356.0,286047001.0,N
1501526375.8,286047001.1,N
1501526395.7,286047000.4,N
1501526415.5,286047001.0,N
1501526435.3,286047000.9,N
1501526455.2,286047000.4,N
1501526475.0,286047000.4,N
1501526475.9,286047000.4,N
1501526495.7,286047000.0,N
1501526515.6,286047000.6,N
1501526535.4,286047000.3,N
1501526555.3,286047000.1,N
1501526575.1,286047000.4,N
1501526576.0,286047000.4,N
1501526595.8,286047000.2,N
1501526615.7,286047002.8,N
1501526635.5,286047000.1,N
1501526655.3,286047002.3,N
1501526675.2,286047002.8,N
1501526695.0,286047001.1,N
1501526715.1,28601501526735.0,286046999.8,P
1501526735.9,286046999.8,N
1501526755.8,286047002.7,P
1501526775.6,286047002.3,N
1501526795.4,286047000.6,N
1501526815.3,286047000.2,N
1501526835.1,286047000.4,N
1501526855.8,286047000.5,P
1501526875.7,286046998.6,P
1501526895.5,286047000.6,N
1501526915.4,286046998.2,N
1501526935.2,286046998.3,N
1501526955.0,286047000.9,N
1501526955.9,286047000.9,N
1501526975.8,286047000.8,N
1501526995.6,286046998.1,N
1501527015.5,286046998.2,N
1501527035.3,286047000.4,N
1501527055.1,286047001.0,N
1501527075.9,286047001.2,N
1501527095.7,286047000.8,N
1501527115.5,286047000.7,N
1501527135.4,286047000.7,N
1501527155.2,286047001.1,N
1501527175.1,286047001.0,N
1501527176.0,286047001.0,N
1501527195.8,286047000.8,N
1501527215.6,286046998.5,N
1501527235.5,286047001.2,N
1501527255.3,286047001.0,N
1501527275.1,286047001.0,N
1501527295.9,286047001.2,N
1501527315.7,286046998.4,N
1501527335.6,286046998.6,N
1501527355.4,286046998.7,N
1501527375.2,286046998.6,N
1501527395.1,286046998.1,N
1501527396.0,286046998.1,P
1501527415.8,286047000.6,N
1501527435.7,286047001.2,N
1501527455.5,286047000.9,N
1501527475.3,286047000.7,N
1501527495.2,286047001.0,N
1501527515.0,286047000.0,N
1501527515.9,286047000.0,N
1501527535.7,286047000.9,N
1501527555.6,286046998.3,N
1501527575.4,286046999.0,N
1501527595.3,286046998.7,N
